Weather History for Billings, MT

Change the Weather History Date:

Thursday, February 7, 2013

  Actual Average Record
Temperature  
Mean Temperature 34 °F 29 °F  
Max Temperature 44 °F 38 °F 68 °F (1987)
Min Temperature 24 °F 20 °F -25 °F (1936)
Degree Days  
Heating Degree Days 31 36  
Month to date heating degree days 181 255  
Since 1 July heating degree days 3860 4251  
Cooling Degree Days 0 0  
Month to date cooling degree days 0 0  
Year to date cooling degree days 0 0  
Moisture  
Dew Point 19 °F    
Average Humidity 56    
Maximum Humidity 75    
Minimum Humidity 37    
Precipitation  
Precipitation 0.00 in 0.01 in 0.29 in (2011)
Month to date precipitation T 0.11  
Year to date precipitation 0.59 0.59  
Snow  
Snow 0.00 in 0.20 in 6.30 in (2011)
Month to date snowfall T 1.5  
Since 1 July snowfall 27.7 29.8  
Snow Depth 0.00 in    
Sea Level Pressure  
Sea Level Pressure 30.04 in    
Wind  
Wind Speed 9 mph (SW)    
Max Wind Speed 18 mph    
Max Gust Speed 22 mph    
Visibility 10 miles    
Events      
T = Trace of Precipitation, MM = Missing Value Source: NWS Daily Summary

Daily Weather History Graph

Daily Weather History Graph

Search for Another Location

Airport:

Trip Planner

Search our weather history database for the weather conditions in past years. The results will help you decide how hot, cold, wet, or windy it might be!

Date:

Astronomy

Feb. 07, 2013 Rise Set
Actual Time 7:27 AM MST 5:29 PM MST
Civil Twilight 6:56 AM MST 6:00 PM MST
Nautical Twilight 6:21 AM MST 6:36 PM MST
Astronomical Twilight 5:46 AM MST 7:10 PM MST
Moon 5:14 AM MST (2/7) 2:53 PM MST (2/7)
Length of Visible Light 11h 04m
Length of Day
10h 01m
Waning Crescent, 8% of the Moon is Illuminated
Feb 7
Waning Crescent
Feb 10
New
Feb 17
First Quarter
Feb 25
Full
Mar 4
Last Quarter

Hourly Weather History & Observations

Time (MST) Temp. Windchill Dew Point Humidity Pressure Visibility Wind Dir Wind Speed Gust Speed Precip Events Conditions
12:53 AM 32.0 °F 22.5 °F 19.0 °F 59% 30.11 in 10.0 mi SW 12.7 mph - N/A   Clear
1:53 AM 32.0 °F 23.6 °F 17.1 °F 54% 30.12 in 10.0 mi SSW 10.4 mph - N/A   Clear
2:53 AM 30.0 °F 20.0 °F 19.9 °F 66% 30.12 in 10.0 mi SW 12.7 mph - N/A   Clear
3:53 AM 28.0 °F 18.6 °F 19.9 °F 72% 30.10 in 10.0 mi SW 10.4 mph - N/A   Clear
4:53 AM 28.0 °F 17.5 °F 19.0 °F 69% 30.11 in 10.0 mi SW 12.7 mph - N/A   Clear
5:53 AM 27.0 °F 13.5 °F 19.0 °F 72% 30.11 in 10.0 mi WSW 19.6 mph - N/A   Clear
6:53 AM 28.0 °F 16.5 °F 18.0 °F 66% 30.10 in 10.0 mi WSW 15.0 mph - N/A   Clear
7:53 AM 26.1 °F 15.0 °F 18.0 °F 71% 30.10 in 10.0 mi SSW 12.7 mph - N/A   Partly Cloudy
8:53 AM 27.0 °F 18.7 °F 19.0 °F 72% 30.10 in 10.0 mi SSW 8.1 mph - N/A   Partly Cloudy
9:53 AM 32.0 °F 23.6 °F 18.0 °F 56% 30.07 in 10.0 mi SW 10.4 mph - N/A   Partly Cloudy
10:53 AM 35.1 °F - 18.0 °F 50% 30.07 in 10.0 mi Calm Calm - N/A   Scattered Clouds
11:53 AM 37.9 °F 33.5 °F 18.0 °F 45% 30.05 in 10.0 mi NE 5.8 mph - N/A   Scattered Clouds
12:53 PM 39.9 °F 35.1 °F 19.0 °F 43% 30.02 in 10.0 mi ENE 6.9 mph - N/A   Partly Cloudy
1:53 PM 43.0 °F 40.3 °F 19.0 °F 38% 29.99 in 10.0 mi East 4.6 mph - N/A   Partly Cloudy
2:53 PM 44.1 °F 40.1 °F 19.0 °F 37% 29.97 in 10.0 mi SSE 6.9 mph - N/A   Scattered Clouds
3:53 PM 43.0 °F 40.3 °F 19.0 °F 38% 29.97 in 10.0 mi South 4.6 mph - N/A   Scattered Clouds
4:53 PM 41.0 °F - 21.9 °F 47% 29.97 in 10.0 mi Calm Calm - N/A   Scattered Clouds
5:53 PM 36.0 °F 31.1 °F 19.0 °F 50% 29.99 in 10.0 mi WNW 5.8 mph - N/A   Scattered Clouds
6:53 PM 35.1 °F 30.1 °F 19.0 °F 52% 29.99 in 10.0 mi WSW 5.8 mph - N/A   Clear
7:53 PM 36.0 °F 28.5 °F 17.1 °F 46% 29.98 in 10.0 mi WSW 10.4 mph - N/A   Clear
8:53 PM 35.1 °F 25.5 °F 17.1 °F 48% 29.97 in 10.0 mi WSW 15.0 mph - N/A   Clear
9:53 PM 34.0 °F 27.2 °F 17.1 °F 50% 29.96 in 10.0 mi WSW 8.1 mph - N/A   Clear
10:53 PM 34.0 °F 26.0 °F 17.1 °F 50% 29.94 in 10.0 mi SW 10.4 mph - N/A   Clear
11:53 PM 30.9 °F 22.8 °F 18.0 °F 59% 29.94 in 10.0 mi SW 9.2 mph - N/A   Clear